TimeCDT,TemperatureF,Dew PointF,Humidity,Sea Level PressureIn,VisibilityMPH,Wind Direction,Wind SpeedMPH,Gust SpeedMPH,PrecipitationIn,Events,Conditions,WindDirDegrees,DateUTC
12:53 AM,61.0,57.0,87,29.97,10.0,WSW,5.8,-,N/A,,Partly Cloudy,240,2012-11-01 05:53:00
1:53 AM,62.1,57.9,86,29.98,10.0,NNW,6.9,-,N/A,,Overcast,330,2012-11-01 06:53:00
2:53 AM,61.0,57.0,87,29.99,9.0,NNW,3.5,-,N/A,,Overcast,330,2012-11-01 07:53:00
3:53 AM,60.1,55.9,86,29.99,9.0,Calm,Calm,-,N/A,,Overcast,0,2012-11-01 08:53:00
4:53 AM,57.9,55.0,90,29.99,9.0,Calm,Calm,-,N/A,,Mostly Cloudy,0,2012-11-01 09:53:00
5:53 AM,57.9,50.0,75,30.01,10.0,NNE,5.8,-,N/A,,Mostly Cloudy,20,2012-11-01 10:53:00
6:53 AM,55.0,46.9,74,30.02,10.0,Calm,Calm,-,N/A,,Partly Cloudy,0,2012-11-01 11:53:00
7:53 AM,54.0,48.0,80,30.04,10.0,Calm,Calm,-,N/A,,Clear,0,2012-11-01 12:53:00
8:53 AM,61.0,41.0,48,30.06,10.0,NE,4.6,-,N/A,,Clear,40,2012-11-01 13:53:00
9:53 AM,66.0,36.0,33,30.08,10.0,NNE,6.9,-,N/A,,Clear,30,2012-11-01 14:53:00
10:53 AM,70.0,36.0,29,30.09,10.0,NNW,5.8,-,N/A,,Clear,340,2012-11-01 15:53:00
11:53 AM,71.1,37.0,29,30.07,10.0,NNW,8.1,-,N/A,,Clear,340,2012-11-01 16:53:00
12:53 PM,73.0,39.0,29,30.03,10.0,Variable,4.6,-,N/A,,Clear,0,2012-11-01 17:53:00
1:53 PM,75.0,39.9,28,30.00,10.0,NW,10.4,-,N/A,,Clear,310,2012-11-01 18:53:00
2:53 PM,75.0,39.9,28,29.99,10.0,NNW,12.7,-,N/A,,Clear,330,2012-11-01 19:53:00
3:53 PM,75.0,42.1,31,29.98,10.0,NW,8.1,-,N/A,,Clear,320,2012-11-01 20:53:00
4:53 PM,73.9,43.0,33,29.98,10.0,NNW,8.1,-,N/A,,Clear,330,2012-11-01 21:53:00
5:53 PM,69.1,46.9,45,30.00,10.0,NNW,3.5,-,N/A,,Clear,340,2012-11-01 22:53:00
6:53 PM,57.9,48.0,70,30.02,10.0,Calm,Calm,-,N/A,,Clear,0,2012-11-01 23:53:00
7:53 PM,53.1,46.0,77,30.03,10.0,Calm,Calm,-,N/A,,Clear,0,2012-11-02 00:53:00
8:53 PM,52.0,46.9,83,30.05,10.0,SSW,4.6,-,N/A,,Clear,200,2012-11-02 01:53:00
9:53 PM,48.9,46.0,90,30.06,10.0,Calm,Calm,-,N/A,,Clear,0,2012-11-02 02:53:00
10:53 PM,46.9,44.1,90,30.06,10.0,Calm,Calm,-,N/A,,Clear,0,2012-11-02 03:53:00
11:53 PM,46.0,43.0,89,30.06,10.0,Calm,Calm,-,N/A,,Clear,0,2012-11-02 04:53:00